Location: Aciu?a
(46.2833°N, 22.4500°E)
Time: 02:26:28
(UTC+00:00)

Cosmos 1606 Rocket - Pass Details

Date: 25 October 2021
Orbit: 601 x 633 km, 82.5° (Epoch: 30 November)

Event Time Altitude Azimuth Distance (km) Brightness Sun altitude
Rises 17:34:23 0° 185° (S) 2,914 7.0 -22.7°
Reaches altitude 10° 17:36:37 10° 184° (S) 2,011 6.1 -23.1°
Enters shadow 17:40:20 61° 172° (S) 719 3.7 -23.7°
Exits shadow 17:45:39 10° 11° (N) 2,053 6.2 -24.6°
Sets 17:47:48 0° 10° (N) 2,929 7.0 -25.0°
